TimeCST,TemperatureF,Dew PointF,Humidity,Sea Level PressureIn,VisibilityMPH,Wind Direction,Wind SpeedMPH,Gust SpeedMPH,PrecipitationIn,Events,Conditions,WindDirDegrees,DateUTC
12:30 AM,30.2,21.2,69,30.14,10.0,North,6.9,-,N/A,,Overcast,350,2013-01-16 06:30:00
12:38 AM,30.2,21.2,69,30.14,10.0,NNW,6.9,-,N/A,,Overcast,340,2013-01-16 06:38:00
12:53 AM,30.9,21.0,67,30.15,10.0,North,8.1,-,N/A,,Overcast,350,2013-01-16 06:53:00
1:53 AM,30.9,21.0,67,30.15,10.0,NNW,5.8,-,N/A,,Overcast,340,2013-01-16 07:53:00
2:53 AM,30.9,21.0,67,30.14,10.0,NNW,5.8,-,N/A,,Overcast,340,2013-01-16 08:53:00
3:53 AM,30.9,21.0,67,30.14,10.0,NNW,8.1,-,N/A,,Overcast,330,2013-01-16 09:53:00
4:53 AM,30.9,21.0,67,30.13,10.0,NW,5.8,-,N/A,,Overcast,320,2013-01-16 10:53:00
6:53 AM,30.0,21.0,69,30.16,10.0,NNW,6.9,-,N/A,,Overcast,340,2013-01-16 12:53:00
7:53 AM,28.0,21.0,75,30.16,10.0,NNW,4.6,-,N/A,,Clear,340,2013-01-16 13:53:00
8:53 AM,30.0,19.9,66,30.19,10.0,NW,4.6,-,N/A,,Clear,320,2013-01-16 14:53:00
9:53 AM,30.9,18.0,59,30.21,10.0,Calm,Calm,-,N/A,,Clear,0,2013-01-16 15:53:00
10:53 AM,33.1,19.0,56,30.18,10.0,Calm,Calm,-,N/A,,Clear,0,2013-01-16 16:53:00
11:53 AM,36.0,19.0,50,30.14,10.0,NW,4.6,-,N/A,,Clear,320,2013-01-16 17:53:00
12:53 PM,37.0,17.1,44,30.12,10.0,Calm,Calm,-,N/A,,Clear,0,2013-01-16 18:53:00
2:53 PM,35.1,21.9,59,30.12,10.0,South,9.2,-,N/A,,Clear,180,2013-01-16 20:53:00
3:53 PM,36.0,18.0,48,30.12,10.0,SSW,4.6,-,N/A,,Clear,200,2013-01-16 21:53:00
4:53 PM,35.1,19.0,52,30.14,10.0,South,6.9,-,N/A,,Clear,190,2013-01-16 22:53:00
5:53 PM,33.1,19.9,59,30.15,10.0,Calm,Calm,-,N/A,,Clear,0,2013-01-16 23:53:00
6:53 PM,32.0,21.9,66,30.16,10.0,Calm,Calm,-,N/A,,Clear,0,2013-01-17 00:53:00
7:53 PM,30.0,23.0,75,30.17,10.0,Calm,Calm,-,N/A,,Clear,0,2013-01-17 01:53:00
8:53 PM,28.9,21.9,75,30.16,10.0,Calm,Calm,-,N/A,,Clear,0,2013-01-17 02:53:00
9:53 PM,27.0,21.0,78,30.16,10.0,Calm,Calm,-,N/A,,Clear,0,2013-01-17 03:53:00
10:53 PM,28.0,23.0,81,30.16,10.0,Calm,Calm,-,N/A,,Clear,0,2013-01-17 04:53:00
11:53 PM,26.1,21.0,81,30.18,10.0,Calm,Calm,-,N/A,,Clear,0,2013-01-17 05:53:00